Location: Le Vaud
(46.4779°N, 6.2346°E)
Time: 18:31:14
(UTC+00:00)

ADEOS - Pass Details

Date: 18 February 2020
Orbit: 793 x 794 km, 98.9° (Epoch: 27 March)

Event Time Altitude Azimuth Distance (km) Brightness Sun altitude
Rises 03:49:35 0° 13° (NNE) 3,307 7.1 -29.0°
Reaches altitude 10° 03:51:55 10° 13° (NNE) 2,373 6.3 -28.6°
Enters shadow 03:56:20 64° 0° (N) 883 3.7 -27.8°
